User: anonymous   Login
Location: Chavannes
(47.1090°N, 0.2226°W)
Time: 01:27:47
(UTC+00:00)
Language:

deb Kosmos-1275 - Orbit

View from above orbital plane
View from above orbital plane
View from above satellite
View from above satellite

Ground track
Ground track

The orbit data is extracted from the following two-line orbital elements,

1 12779U 81053DV  22226.83031447  .00010769  00000-0  13778-2 0  9998
2 12779  82.5539  58.1008 0007153 269.4744  90.5651 14.81255911129043
Epoch (UTC): 14 August 2022 19:55:39
Eccentricity: 0.0007153
inclination: 82.5539°
perigee height: 620 km
apogee height: 630 km
right ascension of ascending node: 58.1008°
argument of perigee: 269.4744°
revolutions per day: 14.81255911
mean anomaly at epoch: 90.5651°
orbit number at epoch: 12904

The dashed part of the orbit path shows where the satellite is in the earth's shadow,  

DLR